Time,TemperatureF,DewpointF,PressureIn,WindDirection,WindDirectionDegrees,WindSpeedMPH,WindSpeedGustMPH,Humidity,HourlyPrecipIn,Conditions,Clouds,dailyrainin,SoftwareType,DateUTC
2013-01-26 00:00:00,22.3,16.2,29.82,WSW,248,0.4,1.6,77,0.00,,,0.00,WUHU216HW,2013-01-26 05:00:00,
2013-01-26 00:01:00,22.3,16.2,29.82,NNW,338,1.1,1.6,77,0.00,,,0.00,WUHU216HW,2013-01-26 05:01:00,
2013-01-26 00:03:00,22.3,16.2,29.82,SW,225,0.4,1.6,77,0.00,,,0.00,WUHU216HW,2013-01-26 05:03:00,
2013-01-26 00:08:00,22.5,16.4,29.83,WSW,248,0.2,1.6,77,0.00,,,0.00,WUHU216HW,2013-01-26 05:08:00,
2013-01-26 00:13:00,22.5,16.4,29.83,West,270,0.2,1.1,77,0.00,,,0.00,WUHU216HW,2013-01-26 05:13:00,
2013-01-26 00:18:00,22.5,16.7,29.82,WSW,248,0.4,1.8,78,0.00,,,0.00,WUHU216HW,2013-01-26 05:18:00,
2013-01-26 00:23:00,22.7,16.8,29.83,SSW,203,0.2,1.8,78,0.00,,,0.00,WUHU216HW,2013-01-26 05:23:00,
2013-01-26 00:28:00,22.7,16.8,29.82,WSW,248,0.0,0.9,78,0.00,,,0.00,WUHU216HW,2013-01-26 05:28:00,
2013-01-26 00:33:00,22.7,16.8,29.83,South,180,0.9,0.9,78,0.00,,,0.00,WUHU216HW,2013-01-26 05:33:00,
2013-01-26 00:38:00,22.7,16.6,29.83,WSW,248,0.4,1.1,77,0.00,,,0.00,WUHU216HW,2013-01-26 05:38:00,
2013-01-26 00:43:00,22.7,16.8,29.82,WSW,248,0.9,1.3,78,0.00,,,0.00,WUHU216HW,2013-01-26 05:43:00,
2013-01-26 00:48:00,22.7,16.8,29.82,SW,225,0.4,1.3,78,0.00,,,0.00,WUHU216HW,2013-01-26 05:48:00,
2013-01-26 00:53:00,22.9,17.0,29.83,WSW,248,0.4,1.1,78,0.00,,,0.00,WUHU216HW,2013-01-26 05:53:00,
2013-01-26 00:58:00,22.9,17.0,29.83,SW,225,0.7,1.1,78,0.00,,,0.00,WUHU216HW,2013-01-26 05:58:00,
2013-01-26 01:03:00,22.9,16.8,29.83,West,270,0.9,1.1,77,0.00,,,0.00,WUHU216HW,2013-01-26 06:03:00,
2013-01-26 01:08:00,23.0,16.9,29.83,WSW,248,0.4,0.9,77,0.00,,,0.00,WUHU216HW,2013-01-26 06:08:00,
2013-01-26 01:13:00,23.0,17.2,29.83,NNW,338,0.0,1.3,78,0.00,,,0.00,WUHU216HW,2013-01-26 06:13:00,
2013-01-26 01:18:00,23.0,17.2,29.83,SW,225,0.2,1.3,78,0.00,,,0.00,WUHU216HW,2013-01-26 06:18:00,
2013-01-26 01:23:00,23.2,17.4,29.83,NW,315,1.8,1.8,78,0.00,,,0.00,WUHU216HW,2013-01-26 06:23:00,
2013-01-26 01:28:00,23.2,17.4,29.83,West,270,0.9,1.8,78,0.00,,,0.00,WUHU216HW,2013-01-26 06:28:00,
2013-01-26 01:33:00,23.2,17.4,29.83,NW,315,0.4,1.6,78,0.00,,,0.00,WUHU216HW,2013-01-26 06:33:00,
2013-01-26 01:38:00,23.4,17.6,29.83,WNW,293,0.9,1.8,78,0.00,,,0.00,WUHU216HW,2013-01-26 06:38:00,
2013-01-26 01:43:00,23.4,17.6,29.82,West,270,1.3,1.8,78,0.00,,,0.00,WUHU216HW,2013-01-26 06:43:00,
2013-01-26 01:48:00,23.4,17.6,29.82,NW,315,0.2,1.8,78,0.00,,,0.00,WUHU216HW,2013-01-26 06:48:00,
2013-01-26 01:53:00,23.4,17.6,29.82,WSW,248,0.4,1.8,78,0.00,,,0.00,WUHU216HW,2013-01-26 06:53:00,
2013-01-26 01:58:00,23.6,17.7,29.82,WNW,293,0.2,1.3,78,0.00,,,0.00,WUHU216HW,2013-01-26 06:58:00,
2013-01-26 02:03:00,23.6,17.7,29.82,WSW,248,0.4,0.4,78,0.00,,,0.00,WUHU216HW,2013-01-26 07:03:00,
2013-01-26 02:08:00,23.6,17.7,29.83,West,270,0.4,0.7,78,0.00,,,0.00,WUHU216HW,2013-01-26 07:08:00,
2013-01-26 02:13:00,23.6,17.7,29.82,SW,225,0.0,1.1,78,0.00,,,0.00,WUHU216HW,2013-01-26 07:13:00,
2013-01-26 02:18:00,23.8,17.9,29.82,SW,225,0.9,1.1,78,0.00,,,0.00,WUHU216HW,2013-01-26 07:18:00,
2013-01-26 02:23:00,23.8,17.7,29.83,WSW,248,0.0,0.9,77,0.00,,,0.00,WUHU216HW,2013-01-26 07:23:00,
2013-01-26 02:28:00,23.9,18.4,29.83,WSW,248,1.3,1.3,79,0.00,,,0.00,WUHU216HW,2013-01-26 07:28:00,
2013-01-26 02:34:00,23.9,18.4,29.83,WNW,293,0.4,2.0,79,0.00,,,0.00,WUHU216HW,2013-01-26 07:34:00,
2013-01-26 02:39:00,23.9,18.4,29.83,SW,225,0.2,2.0,79,0.00,,,0.00,WUHU216HW,2013-01-26 07:39:00,
2013-01-26 02:44:00,23.9,18.4,29.83,WSW,248,0.0,1.6,79,0.00,,,0.00,WUHU216HW,2013-01-26 07:44:00,
2013-01-26 02:49:00,23.9,18.4,29.84,SW,225,0.2,1.6,79,0.00,,,0.00,WUHU216HW,2013-01-26 07:49:00,
2013-01-26 02:54:00,23.9,18.4,29.84,West,270,2.2,2.2,79,0.00,,,0.00,WUHU216HW,2013-01-26 07:54:00,
2013-01-26 02:59:00,24.1,18.3,29.84,WSW,248,2.7,2.7,78,0.00,,,0.00,WUHU216HW,2013-01-26 07:59:00,
2013-01-26 03:04:00,24.1,18.3,29.84,West,270,1.8,2.7,78,0.00,,,0.00,WUHU216HW,2013-01-26 08:04:00,
2013-01-26 03:09:00,24.1,18.3,29.83,NNE,23,0.0,2.0,78,0.00,,,0.00,WUHU216HW,2013-01-26 08:09:00,
2013-01-26 03:14:00,24.1,18.3,29.84,WSW,248,1.1,1.1,78,0.00,,,0.00,WUHU216HW,2013-01-26 08:14:00,
2013-01-26 03:19:00,24.1,18.5,29.84,NW,315,0.2,1.1,79,0.00,,,0.00,WUHU216HW,2013-01-26 08:19:00,
2013-01-26 03:24:00,24.1,18.3,29.84,WNW,293,0.7,0.9,78,0.00,,,0.00,WUHU216HW,2013-01-26 08:24:00,
2013-01-26 03:29:00,24.1,18.3,29.84,WSW,248,0.2,2.0,78,0.00,,,0.00,WUHU216HW,2013-01-26 08:29:00,
2013-01-26 03:34:00,24.1,18.3,29.85,West,270,0.0,2.0,78,0.00,,,0.00,WUHU216HW,2013-01-26 08:34:00,
2013-01-26 03:39:00,24.1,18.3,29.85,West,270,0.4,1.1,78,0.00,,,0.00,WUHU216HW,2013-01-26 08:39:00,
2013-01-26 03:44:00,24.1,18.3,29.85,West,270,0.9,1.1,78,0.00,,,0.00,WUHU216HW,2013-01-26 08:44:00,
2013-01-26 03:49:00,24.3,18.5,29.85,NW,315,0.7,1.3,78,0.00,,,0.00,WUHU216HW,2013-01-26 08:49:00,
2013-01-26 03:54:00,24.3,18.5,29.85,NW,315,0.7,1.6,78,0.00,,,0.00,WUHU216HW,2013-01-26 08:54:00,
2013-01-26 03:59:00,24.3,18.5,29.85,WNW,293,0.4,1.6,78,0.00,,,0.00,WUHU216HW,2013-01-26 08:59:00,
2013-01-26 04:04:00,24.3,18.5,29.85,SSE,158,0.0,1.1,78,0.00,,,0.00,WUHU216HW,2013-01-26 09:04:00,
2013-01-26 04:09:00,24.3,18.5,29.85,WNW,293,0.4,1.1,78,0.00,,,0.00,WUHU216HW,2013-01-26 09:09:00,
2013-01-26 04:14:00,24.3,18.1,29.86,WNW,293,0.4,0.4,77,0.00,,,0.00,WUHU216HW,2013-01-26 09:14:00,
2013-01-26 04:19:00,24.3,18.5,29.86,WNW,293,0.4,0.7,78,0.00,,,0.00,WUHU216HW,2013-01-26 09:19:00,
2013-01-26 04:24:00,24.3,18.1,29.86,NW,315,0.0,0.7,77,0.00,,,0.00,WUHU216HW,2013-01-26 09:24:00,
2013-01-26 04:29:00,24.1,17.9,29.87,North,0,0.4,0.9,77,0.00,,,0.00,WUHU216HW,2013-01-26 09:29:00,
2013-01-26 04:34:00,24.1,17.9,29.87,NW,315,0.2,0.9,77,0.00,,,0.00,WUHU216HW,2013-01-26 09:34:00,
2013-01-26 04:39:00,24.1,17.9,29.87,WNW,293,0.4,0.7,77,0.00,,,0.00,WUHU216HW,2013-01-26 09:39:00,
2013-01-26 04:44:00,24.1,17.9,29.87,WSW,248,0.0,1.1,77,0.00,,,0.00,WUHU216HW,2013-01-26 09:44:00,
2013-01-26 04:49:00,24.1,17.9,29.87,WNW,293,0.2,1.1,77,0.00,,,0.00,WUHU216HW,2013-01-26 09:49:00,
2013-01-26 04:55:00,24.1,17.9,29.88,North,0,0.0,0.4,77,0.00,,,0.00,WUHU216HW,2013-01-26 09:55:00,
2013-01-26 05:00:00,24.1,17.9,29.88,WSW,248,0.4,0.4,77,0.00,,,0.00,WUHU216HW,2013-01-26 10:00:00,
2013-01-26 05:05:00,24.1,17.9,29.88,NNW,338,0.2,0.4,77,0.00,,,0.00,WUHU216HW,2013-01-26 10:05:00,
2013-01-26 05:10:00,24.1,17.9,29.88,NNW,338,0.0,0.4,77,0.00,,,0.00,WUHU216HW,2013-01-26 10:10:00,
2013-01-26 05:15:00,24.1,17.9,29.88,NW,315,0.2,0.4,77,0.00,,,0.00,WUHU216HW,2013-01-26 10:15:00,
2013-01-26 05:20:00,24.1,17.9,29.88,NW,315,0.0,0.9,77,0.00,,,0.00,WUHU216HW,2013-01-26 10:20:00,
2013-01-26 05:25:00,24.1,17.9,29.88,NW,315,1.1,1.1,77,0.00,,,0.00,WUHU216HW,2013-01-26 10:25:00,
2013-01-26 05:30:00,24.1,17.9,29.88,WNW,293,0.4,1.6,77,0.00,,,0.00,WUHU216HW,2013-01-26 10:30:00,
2013-01-26 05:35:00,24.1,17.9,29.89,WNW,293,0.0,1.6,77,0.00,,,0.00,WUHU216HW,2013-01-26 10:35:00,
2013-01-26 05:40:00,24.1,18.3,29.88,WNW,293,0.2,0.7,78,0.00,,,0.00,WUHU216HW,2013-01-26 10:40:00,
2013-01-26 05:45:00,24.1,18.3,29.89,NW,315,0.0,0.9,78,0.00,,,0.00,WUHU216HW,2013-01-26 10:45:00,
2013-01-26 05:50:00,24.1,18.3,29.89,WNW,293,0.4,1.3,78,0.00,,,0.00,WUHU216HW,2013-01-26 10:50:00,
2013-01-26 05:55:00,24.1,18.3,29.89,West,270,0.2,1.3,78,0.00,,,0.00,WUHU216HW,2013-01-26 10:55:00,
2013-01-26 06:00:00,24.3,18.5,29.90,West,270,1.1,1.3,78,0.00,,,0.00,WUHU216HW,2013-01-26 11:00:00,
2013-01-26 06:05:00,24.3,18.5,29.90,WNW,293,0.2,1.3,78,0.00,,,0.00,WUHU216HW,2013-01-26 11:05:00,
2013-01-26 06:10:00,24.3,18.1,29.90,NW,315,0.0,1.1,77,0.00,,,0.00,WUHU216HW,2013-01-26 11:10:00,
2013-01-26 06:15:00,24.3,18.5,29.90,NW,315,0.9,1.1,78,0.00,,,0.00,WUHU216HW,2013-01-26 11:15:00,
2013-01-26 06:20:00,24.5,18.6,29.90,NW,315,0.2,1.1,78,0.00,,,0.00,WUHU216HW,2013-01-26 11:20:00,
2013-01-26 06:25:00,24.5,18.6,29.90,SSW,203,0.7,1.1,78,0.00,,,0.00,WUHU216HW,2013-01-26 11:25:00,
2013-01-26 06:30:00,24.5,18.6,29.91,NW,315,0.0,0.7,78,0.00,,,0.00,WUHU216HW,2013-01-26 11:30:00,
2013-01-26 06:35:00,24.5,18.3,29.91,NW,315,0.0,0.9,77,0.00,,,0.00,WUHU216HW,2013-01-26 11:35:00,
2013-01-26 06:40:00,24.5,18.3,29.91,NNW,338,0.0,0.9,77,0.00,,,0.00,WUHU216HW,2013-01-26 11:40:00,
2013-01-26 06:45:00,24.5,18.3,29.91,SW,225,0.7,0.7,77,0.00,,,0.00,WUHU216HW,2013-01-26 11:45:00,
2013-01-26 06:50:00,24.5,18.3,29.92,NW,315,1.1,1.1,77,0.00,,,0.00,WUHU216HW,2013-01-26 11:50:00,
2013-01-26 06:55:00,24.5,18.3,29.92,WNW,293,0.0,1.1,77,0.00,,,0.00,WUHU216HW,2013-01-26 11:55:00,
2013-01-26 07:00:00,24.5,18.3,29.92,West,270,0.2,0.4,77,0.00,,,0.00,WUHU216HW,2013-01-26 12:00:00,
2013-01-26 07:06:00,24.5,18.3,29.92,WNW,293,0.0,0.4,77,0.00,,,0.00,WUHU216HW,2013-01-26 12:06:00,
2013-01-26 07:11:00,24.5,18.3,29.93,NNE,23,0.0,0.4,77,0.00,,,0.00,WUHU216HW,2013-01-26 12:11:00,
2013-01-26 07:16:00,24.5,18.3,29.93,WNW,293,0.0,0.7,77,0.00,,,0.00,WUHU216HW,2013-01-26 12:16:00,
2013-01-26 07:21:00,24.7,18.5,29.93,NW,315,0.2,0.7,77,0.00,,,0.00,WUHU216HW,2013-01-26 12:21:00,
2013-01-26 07:26:00,24.7,18.5,29.93,SW,225,0.2,0.7,77,0.00,,,0.00,WUHU216HW,2013-01-26 12:26:00,
2013-01-26 07:31:00,24.7,18.5,29.93,NW,315,0.7,1.1,77,0.00,,,0.00,WUHU216HW,2013-01-26 12:31:00,
2013-01-26 07:36:00,24.7,18.5,29.93,NNW,338,0.2,1.1,77,0.00,,,0.00,WUHU216HW,2013-01-26 12:36:00,
2013-01-26 07:41:00,24.8,18.6,29.93,NNW,338,0.0,0.2,77,0.00,,,0.00,WUHU216HW,2013-01-26 12:41:00,
2013-01-26 07:46:00,24.8,18.6,29.93,North,0,0.2,0.4,77,0.00,,,0.00,WUHU216HW,2013-01-26 12:46:00,
2013-01-26 07:51:00,24.8,18.6,29.93,SSW,203,0.4,1.1,77,0.00,,,0.00,WUHU216HW,2013-01-26 12:51:00,
2013-01-26 07:56:00,24.8,18.6,29.94,NW,315,0.0,1.1,77,0.00,,,0.00,WUHU216HW,2013-01-26 12:56:00,
2013-01-26 08:01:00,25.0,18.8,29.94,NW,315,0.4,0.9,77,0.00,,,0.00,WUHU216HW,2013-01-26 13:01:00,
2013-01-26 08:06:00,25.2,19.0,29.94,WNW,293,0.4,0.4,77,0.00,,,0.00,WUHU216HW,2013-01-26 13:06:00,
2013-01-26 08:11:00,25.4,19.2,29.94,West,270,0.0,0.4,77,0.00,,,0.00,WUHU216HW,2013-01-26 13:11:00,
2013-01-26 08:16:00,25.4,19.2,29.94,North,0,0.2,0.4,77,0.00,,,0.00,WUHU216HW,2013-01-26 13:16:00,
2013-01-26 08:21:00,25.6,19.0,29.94,WNW,293,0.0,0.2,76,0.00,,,0.00,WUHU216HW,2013-01-26 13:21:00,
2013-01-26 08:26:00,25.7,19.2,29.94,WSW,248,0.7,0.7,76,0.00,,,0.00,WUHU216HW,2013-01-26 13:26:00,
2013-01-26 08:31:00,25.9,19.4,29.95,NW,315,0.4,1.1,76,0.00,,,0.00,WUHU216HW,2013-01-26 13:31:00,
2013-01-26 08:36:00,26.1,19.2,29.95,NW,315,0.9,1.1,75,0.00,,,0.00,WUHU216HW,2013-01-26 13:36:00,
2013-01-26 08:41:00,26.3,19.4,29.94,NW,315,0.0,0.9,75,0.00,,,0.00,WUHU216HW,2013-01-26 13:41:00,
2013-01-26 08:46:00,26.5,19.5,29.95,ENE,68,0.0,0.4,75,0.00,,,0.00,WUHU216HW,2013-01-26 13:46:00,
2013-01-26 08:51:00,26.6,19.7,29.95,WSW,248,0.9,1.3,75,0.00,,,0.00,WUHU216HW,2013-01-26 13:51:00,
2013-01-26 08:56:00,26.8,19.6,29.95,West,270,0.9,1.3,74,0.00,,,0.00,WUHU216HW,2013-01-26 13:56:00,
2013-01-26 09:01:00,27.0,19.8,29.95,NNW,338,1.1,1.1,74,0.00,,,0.00,WUHU216HW,2013-01-26 14:01:00,
2013-01-26 09:06:00,27.2,19.6,29.95,West,270,0.4,1.3,73,0.00,,,0.00,WUHU216HW,2013-01-26 14:06:00,
2013-01-26 09:11:00,27.4,19.8,29.95,NNE,23,0.4,1.3,73,0.00,,,0.00,WUHU216HW,2013-01-26 14:11:00,
2013-01-26 09:16:00,27.7,20.2,29.96,NW,315,0.0,0.9,73,0.00,,,0.00,WUHU216HW,2013-01-26 14:16:00,
2013-01-26 09:21:00,28.1,20.5,29.96,WNW,293,0.4,0.4,73,0.00,,,0.00,WUHU216HW,2013-01-26 14:21:00,
2013-01-26 09:26:00,28.4,20.9,29.96,NW,315,1.8,1.8,73,0.00,,,0.00,WUHU216HW,2013-01-26 14:26:00,
2013-01-26 09:31:00,28.4,20.6,29.96,WNW,293,1.1,2.5,72,0.00,,,0.00,WUHU216HW,2013-01-26 14:31:00,
2013-01-26 09:36:00,28.4,20.6,29.96,ENE,68,0.9,2.5,72,0.00,,,0.00,WUHU216HW,2013-01-26 14:36:00,
2013-01-26 09:41:00,28.4,20.0,29.96,NE,45,1.1,1.8,70,0.00,,,0.00,WUHU216HW,2013-01-26 14:41:00,
2013-01-26 09:46:00,28.6,20.4,29.97,NNW,338,0.2,1.3,71,0.00,,,0.00,WUHU216HW,2013-01-26 14:46:00,
2013-01-26 09:51:00,29.0,20.4,29.97,NNW,338,0.4,0.7,70,0.00,,,0.00,WUHU216HW,2013-01-26 14:51:00,
2013-01-26 09:56:00,28.8,20.4,29.98,WNW,293,1.1,2.7,70,0.00,,,0.00,WUHU216HW,2013-01-26 14:56:00,
2013-01-26 10:01:00,28.8,20.4,29.98,NNE,23,2.2,2.7,70,0.00,,,0.00,WUHU216HW,2013-01-26 15:01:00,
2013-01-26 10:07:00,28.8,20.0,29.98,West,270,1.3,2.2,69,0.00,,,0.00,WUHU216HW,2013-01-26 15:07:00,
2013-01-26 10:12:00,28.8,20.0,29.98,West,270,0.2,2.2,69,0.00,,,0.00,WUHU216HW,2013-01-26 15:12:00,
2013-01-26 10:17:00,28.6,19.8,29.98,West,270,0.7,2.0,69,0.00,,,0.00,WUHU216HW,2013-01-26 15:17:00,
2013-01-26 10:22:00,28.6,19.5,29.98,West,270,2.7,2.7,68,0.00,,,0.00,WUHU216HW,2013-01-26 15:22:00,
2013-01-26 10:27:00,28.4,19.3,29.98,West,270,0.7,2.7,68,0.00,,,0.00,WUHU216HW,2013-01-26 15:27:00,
2013-01-26 10:32:00,28.6,19.5,29.98,NW,315,1.1,2.5,68,0.00,,,0.00,WUHU216HW,2013-01-26 15:32:00,
2013-01-26 10:37:00,28.8,19.6,29.99,NE,45,0.4,2.5,68,0.00,,,0.00,WUHU216HW,2013-01-26 15:37:00,
2013-01-26 10:42:00,29.0,19.4,29.99,WNW,293,1.1,2.5,67,0.00,,,0.00,WUHU216HW,2013-01-26 15:42:00,
2013-01-26 10:47:00,29.2,19.5,29.99,West,270,2.2,2.9,67,0.00,,,0.00,WUHU216HW,2013-01-26 15:47:00,
2013-01-26 10:52:00,29.3,19.7,29.99,North,0,1.3,2.9,67,0.00,,,0.00,WUHU216HW,2013-01-26 15:52:00,
2013-01-26 10:57:00,29.5,19.9,29.99,North,0,1.1,2.7,67,0.00,,,0.00,WUHU216HW,2013-01-26 15:57:00,
2013-01-26 11:02:00,29.7,20.1,29.99,NE,45,0.7,1.1,67,0.00,,,0.00,WUHU216HW,2013-01-26 16:02:00,
2013-01-26 11:07:00,29.9,20.2,29.99,SSW,203,0.7,3.4,67,0.00,,,0.00,WUHU216HW,2013-01-26 16:07:00,
2013-01-26 11:12:00,30.2,20.5,29.99,North,0,2.5,3.8,67,0.00,,,0.00,WUHU216HW,2013-01-26 16:12:00,
2013-01-26 11:17:00,30.6,20.9,29.99,SSW,203,1.1,3.8,67,0.00,,,0.00,WUHU216HW,2013-01-26 16:17:00,
2013-01-26 11:22:00,30.8,20.7,29.98,West,270,2.5,2.5,66,0.00,,,0.00,WUHU216HW,2013-01-26 16:22:00,
2013-01-26 11:28:00,31.3,21.2,29.98,NNE,23,2.5,2.5,66,0.00,,,0.00,WUHU216HW,2013-01-26 16:28:00,
2013-01-26 11:33:00,32.0,22.3,29.98,NW,315,3.6,3.6,67,0.00,,,0.00,WUHU216HW,2013-01-26 16:33:00,
2013-01-26 11:38:00,32.6,22.8,29.98,SW,225,1.1,3.6,67,0.00,,,0.00,WUHU216HW,2013-01-26 16:38:00,
2013-01-26 11:43:00,32.9,22.8,29.99,SW,225,0.9,2.0,66,0.00,,,0.00,WUHU216HW,2013-01-26 16:43:00,
2013-01-26 11:48:00,33.1,22.6,29.98,SW,225,0.4,2.0,65,0.00,,,0.00,WUHU216HW,2013-01-26 16:48:00,
2013-01-26 11:53:00,33.3,22.8,29.98,NW,315,2.2,3.4,65,0.00,,,0.00,WUHU216HW,2013-01-26 16:53:00,
2013-01-26 11:58:00,33.5,22.1,29.98,WNW,293,2.2,3.4,63,0.00,,,0.00,WUHU216HW,2013-01-26 16:58:00,
2013-01-26 12:03:00,33.7,23.0,29.98,WSW,248,1.1,3.8,65,0.00,,,0.00,WUHU216HW,2013-01-26 17:03:00,
2013-01-26 12:08:00,34.2,22.9,29.98,West,270,1.1,3.8,63,0.01,,,0.01,WUHU216HW,2013-01-26 17:08:00,
2013-01-26 12:13:00,34.2,23.2,29.97,WNW,293,2.7,2.7,64,0.01,,,0.01,WUHU216HW,2013-01-26 17:13:00,
2013-01-26 12:18:00,34.0,22.7,29.97,NNW,338,0.7,2.7,63,0.01,,,0.01,WUHU216HW,2013-01-26 17:18:00,
2013-01-26 12:23:00,33.7,22.3,29.97,WNW,293,0.4,2.9,63,0.01,,,0.01,WUHU216HW,2013-01-26 17:23:00,
2013-01-26 12:28:00,33.3,21.7,29.97,West,270,2.2,2.9,62,0.01,,,0.01,WUHU216HW,2013-01-26 17:28:00,
2013-01-26 12:33:00,33.1,21.5,29.96,NW,315,1.1,2.5,62,0.01,,,0.01,WUHU216HW,2013-01-26 17:33:00,
2013-01-26 12:38:00,33.5,21.8,29.96,SSW,203,3.6,3.6,62,0.01,,,0.01,WUHU216HW,2013-01-26 17:38:00,
2013-01-26 12:43:00,34.2,22.1,29.96,NW,315,2.7,3.6,61,0.01,,,0.01,WUHU216HW,2013-01-26 17:43:00,
2013-01-26 12:48:00,34.6,22.5,29.95,West,270,1.8,3.6,61,0.01,,,0.01,WUHU216HW,2013-01-26 17:48:00,
2013-01-26 12:53:00,34.4,21.5,29.95,South,180,2.2,6.0,59,0.01,,,0.01,WUHU216HW,2013-01-26 17:53:00,
2013-01-26 12:58:00,34.4,21.5,29.95,North,0,0.7,6.0,59,0.01,,,0.01,WUHU216HW,2013-01-26 17:58:00,
2013-01-26 13:03:00,34.6,22.5,29.95,West,270,2.5,3.4,61,0.01,,,0.01,WUHU216HW,2013-01-26 18:03:00,
2013-01-26 13:08:00,35.3,23.2,29.95,SW,225,2.0,5.8,61,0.00,,,0.01,WUHU216HW,2013-01-26 18:08:00,
2013-01-26 13:13:00,36.0,23.6,29.95,SW,225,2.5,5.8,60,0.00,,,0.01,WUHU216HW,2013-01-26 18:13:00,
2013-01-26 13:18:00,36.0,23.1,29.95,SW,225,0.7,4.5,59,0.00,,,0.01,WUHU216HW,2013-01-26 18:18:00,
2013-01-26 13:24:00,36.0,22.2,29.95,WNW,293,4.7,5.6,57,0.00,,,0.01,WUHU216HW,2013-01-26 18:24:00,
2013-01-26 13:29:00,36.0,23.1,29.95,NNW,338,4.5,5.6,59,0.00,,,0.01,WUHU216HW,2013-01-26 18:29:00,
2013-01-26 13:34:00,35.6,21.5,29.95,West,270,4.0,4.7,56,0.00,,,0.01,WUHU216HW,2013-01-26 18:34:00,
2013-01-26 13:39:00,35.3,21.6,29.95,North,0,2.5,4.7,57,0.00,,,0.01,WUHU216HW,2013-01-26 18:39:00,
2013-01-26 13:44:00,35.1,21.8,29.95,WSW,248,4.0,4.5,58,0.00,,,0.01,WUHU216HW,2013-01-26 18:44:00,
2013-01-26 13:49:00,34.9,21.6,29.95,West,270,6.5,6.5,58,0.00,,,0.01,WUHU216HW,2013-01-26 18:49:00,
2013-01-26 13:54:00,34.9,20.8,29.95,SSW,203,6.3,6.5,56,0.00,,,0.01,WUHU216HW,2013-01-26 18:54:00,
2013-01-26 13:59:00,35.6,22.8,29.95,SSW,203,3.1,6.3,59,0.00,,,0.01,WUHU216HW,2013-01-26 18:59:00,
2013-01-26 14:04:00,36.4,22.6,29.95,NW,315,3.6,5.4,57,0.01,,,0.02,WUHU216HW,2013-01-26 19:04:00,
2013-01-26 14:09:00,36.4,22.6,29.95,NW,315,3.1,3.6,57,0.01,,,0.02,WUHU216HW,2013-01-26 19:09:00,
2013-01-26 14:14:00,36.4,22.1,29.96,SW,225,2.9,5.1,56,0.01,,,0.02,WUHU216HW,2013-01-26 19:14:00,
2013-01-26 14:19:00,36.4,22.6,29.96,NW,315,3.4,5.1,57,0.01,,,0.02,WUHU216HW,2013-01-26 19:19:00,
2013-01-26 14:24:00,36.5,22.8,29.96,NNW,338,4.3,4.3,57,0.01,,,0.02,WUHU216HW,2013-01-26 19:24:00,
2013-01-26 14:29:00,36.4,21.7,29.96,WSW,248,2.5,4.3,55,0.01,,,0.02,WUHU216HW,2013-01-26 19:29:00,
2013-01-26 14:34:00,36.0,21.8,29.96,SW,225,1.6,3.4,56,0.02,,,0.03,WUHU216HW,2013-01-26 19:34:00,
2013-01-26 14:39:00,35.8,21.7,29.96,NNE,23,2.0,3.4,56,0.02,,,0.03,WUHU216HW,2013-01-26 19:39:00,
2013-01-26 14:44:00,35.8,21.3,29.96,WNW,293,2.5,4.7,55,0.02,,,0.03,WUHU216HW,2013-01-26 19:44:00,
2013-01-26 14:49:00,35.6,21.1,29.97,WSW,248,3.6,6.5,55,0.02,,,0.03,WUHU216HW,2013-01-26 19:49:00,
2013-01-26 14:54:00,35.6,21.5,29.97,WNW,293,1.8,6.5,56,0.02,,,0.03,WUHU216HW,2013-01-26 19:54:00,
2013-01-26 14:57:00,35.6,21.1,29.97,North,0,1.6,5.4,55,0.02,,,0.03,WUHU216HW,2013-01-26 19:57:00,
2013-01-26 15:01:00,35.8,21.3,29.97,WNW,293,2.5,4.5,55,0.01,,,0.03,WUHU216HW,2013-01-26 20:01:00,
2013-01-26 15:02:00,35.8,21.3,29.97,WNW,293,2.5,4.5,55,0.01,,,0.03,WUHU216HW,2013-01-26 20:02:00,
2013-01-26 15:07:00,35.8,21.3,29.97,North,0,1.1,4.5,55,0.01,,,0.03,WUHU216HW,2013-01-26 20:07:00,
2013-01-26 15:12:00,35.8,21.3,29.97,SW,225,1.1,5.4,55,0.01,,,0.03,WUHU216HW,2013-01-26 20:12:00,
2013-01-26 15:17:00,36.0,21.8,29.97,NNW,338,1.8,5.4,56,0.01,,,0.03,WUHU216HW,2013-01-26 20:17:00,
2013-01-26 15:22:00,35.6,21.5,29.97,NW,315,4.7,4.7,56,0.01,,,0.03,WUHU216HW,2013-01-26 20:22:00,
2013-01-26 15:27:00,35.5,21.3,29.98,NW,315,2.5,4.7,56,0.01,,,0.03,WUHU216HW,2013-01-26 20:27:00,
2013-01-26 15:32:00,35.3,20.7,29.98,South,180,1.6,4.7,55,0.00,,,0.03,WUHU216HW,2013-01-26 20:32:00,
2013-01-26 15:37:00,34.9,20.3,29.98,NNW,338,1.8,3.6,55,0.00,,,0.03,WUHU216HW,2013-01-26 20:37:00,
2013-01-26 15:42:00,34.9,20.3,29.98,West,270,4.0,4.0,55,0.00,,,0.03,WUHU216HW,2013-01-26 20:42:00,
2013-01-26 15:47:00,34.9,20.8,29.98,NW,315,1.8,4.9,56,0.00,,,0.03,WUHU216HW,2013-01-26 20:47:00,
2013-01-26 15:52:00,34.9,20.8,29.98,NW,315,1.1,4.9,56,0.00,,,0.03,WUHU216HW,2013-01-26 20:52:00,
2013-01-26 15:57:00,34.9,20.8,29.98,North,0,1.1,4.0,56,0.01,,,0.04,WUHU216HW,2013-01-26 20:57:00,
2013-01-26 16:03:00,34.7,20.6,29.99,SW,225,2.2,4.0,56,0.01,,,0.04,WUHU216HW,2013-01-26 21:03:00,
2013-01-26 16:08:00,34.6,20.4,29.99,SW,225,4.9,4.9,56,0.01,,,0.04,WUHU216HW,2013-01-26 21:08:00,
2013-01-26 16:13:00,34.2,20.1,29.99,West,270,1.8,4.9,56,0.01,,,0.04,WUHU216HW,2013-01-26 21:13:00,
2013-01-26 16:18:00,34.2,20.1,29.99,ESE,113,1.6,2.7,56,0.01,,,0.04,WUHU216HW,2013-01-26 21:18:00,
2013-01-26 16:23:00,33.8,19.7,29.99,NW,315,0.0,3.8,56,0.01,,,0.04,WUHU216HW,2013-01-26 21:23:00,
2013-01-26 16:28:00,33.7,19.5,30.00,NW,315,2.5,3.8,56,0.01,,,0.04,WUHU216HW,2013-01-26 21:28:00,
2013-01-26 16:33:00,33.5,19.4,30.00,NW,315,0.4,2.5,56,0.01,,,0.04,WUHU216HW,2013-01-26 21:33:00,
2013-01-26 16:38:00,33.5,19.4,30.00,West,270,0.0,2.0,56,0.01,,,0.04,WUHU216HW,2013-01-26 21:38:00,
2013-01-26 16:43:00,33.3,19.2,30.01,WNW,293,3.4,3.4,56,0.01,,,0.04,WUHU216HW,2013-01-26 21:43:00,
2013-01-26 16:48:00,33.1,19.4,30.01,West,270,1.1,3.4,57,0.01,,,0.04,WUHU216HW,2013-01-26 21:48:00,
2013-01-26 16:53:00,32.9,19.4,30.01,NW,315,1.1,2.0,57,0.01,,,0.04,WUHU216HW,2013-01-26 21:53:00,
2013-01-26 16:58:00,32.8,19.2,30.01,SW,225,0.9,1.8,57,0.00,,,0.04,WUHU216HW,2013-01-26 21:58:00,
2013-01-26 17:03:00,32.8,19.6,30.01,WNW,293,0.7,2.0,58,0.00,,,0.04,WUHU216HW,2013-01-26 22:03:00,
2013-01-26 17:08:00,32.4,19.3,30.02,North,0,1.1,2.0,58,0.00,,,0.04,WUHU216HW,2013-01-26 22:08:00,
2013-01-26 17:13:00,32.2,19.1,30.02,WNW,293,0.0,1.8,58,0.00,,,0.04,WUHU216HW,2013-01-26 22:13:00,
2013-01-26 17:18:00,32.2,19.1,30.02,WSW,248,0.4,1.1,58,0.00,,,0.04,WUHU216HW,2013-01-26 22:18:00,
2013-01-26 17:22:00,32.0,18.9,30.03,West,270,0.0,0.4,58,0.00,,,0.04,WUHU216HW,2013-01-26 22:22:00,
2013-01-26 17:25:00,32.0,18.9,30.03,West,270,0.0,0.4,58,0.00,,,0.04,WUHU216HW,2013-01-26 22:25:00,
2013-01-26 17:30:00,31.7,19.0,30.03,NNW,338,0.4,0.7,59,0.00,,,0.04,WUHU216HW,2013-01-26 22:30:00,
2013-01-26 17:35:00,31.3,18.6,30.03,WNW,293,0.2,0.7,59,0.00,,,0.04,WUHU216HW,2013-01-26 22:35:00,
2013-01-26 17:40:00,31.0,18.3,30.03,West,270,0.4,2.0,59,0.00,,,0.04,WUHU216HW,2013-01-26 22:40:00,
2013-01-26 17:45:00,30.8,18.5,30.03,NW,315,0.2,2.0,60,0.00,,,0.04,WUHU216HW,2013-01-26 22:45:00,
2013-01-26 17:50:00,30.6,18.4,30.03,NE,45,0.2,1.8,60,0.00,,,0.04,WUHU216HW,2013-01-26 22:50:00,
2013-01-26 17:55:00,30.2,18.0,30.03,North,0,0.2,0.4,60,0.00,,,0.04,WUHU216HW,2013-01-26 22:55:00,
2013-01-26 18:00:00,29.9,18.0,30.03,NNW,338,0.2,0.4,61,0.00,,,0.04,WUHU216HW,2013-01-26 23:00:00,
2013-01-26 18:05:00,29.5,17.7,30.04,North,0,0.0,0.4,61,0.00,,,0.04,WUHU216HW,2013-01-26 23:05:00,
2013-01-26 18:10:00,29.2,17.7,30.04,NNE,23,0.0,0.9,62,0.00,,,0.04,WUHU216HW,2013-01-26 23:10:00,
2013-01-26 18:15:00,29.0,17.6,30.05,NNE,23,2.5,2.5,62,0.00,,,0.04,WUHU216HW,2013-01-26 23:15:00,
2013-01-26 18:20:00,28.6,17.3,30.05,North,0,0.2,2.5,62,0.00,,,0.04,WUHU216HW,2013-01-26 23:20:00,
2013-01-26 18:25:00,28.4,17.1,30.05,North,0,0.0,0.2,62,0.00,,,0.04,WUHU216HW,2013-01-26 23:25:00,
2013-01-26 18:30:00,28.1,16.7,30.05,North,0,0.0,0.0,62,0.00,,,0.04,WUHU216HW,2013-01-26 23:30:00,
2013-01-26 18:35:00,27.9,16.6,30.05,NW,315,0.0,0.2,62,0.00,,,0.04,WUHU216HW,2013-01-26 23:35:00,
2013-01-26 18:40:00,27.5,16.6,30.05,NW,315,0.0,0.2,63,0.00,,,0.04,WUHU216HW,2013-01-26 23:40:00,
2013-01-26 18:45:00,27.4,16.4,30.06,North,0,0.0,0.0,63,0.00,,,0.04,WUHU216HW,2013-01-26 23:45:00,
2013-01-26 18:50:00,27.0,16.0,30.06,North,0,0.0,0.0,63,0.00,,,0.04,WUHU216HW,2013-01-26 23:50:00,
2013-01-26 18:55:00,26.6,16.0,30.06,North,0,0.0,0.0,64,0.00,,,0.04,WUHU216HW,2013-01-26 23:55:00,
2013-01-26 19:00:00,26.3,15.7,30.07,North,0,0.0,0.0,64,0.00,,,0.04,WUHU216HW,2013-01-27 00:00:00,
2013-01-26 19:05:00,26.3,16.0,30.07,North,0,0.0,0.0,65,0.00,,,0.04,WUHU216HW,2013-01-27 00:05:00,
2013-01-26 19:10:00,26.1,15.8,30.07,NNW,338,0.0,0.0,65,0.00,,,0.04,WUHU216HW,2013-01-27 00:10:00,
2013-01-26 19:15:00,25.9,15.7,30.08,NNW,338,0.0,0.0,65,0.00,,,0.04,WUHU216HW,2013-01-27 00:15:00,
2013-01-26 19:20:00,25.7,15.8,30.07,NW,315,0.0,0.0,66,0.00,,,0.04,WUHU216HW,2013-01-27 00:20:00,
2013-01-26 19:26:00,25.6,15.7,30.08,NW,315,0.0,0.0,66,0.00,,,0.04,WUHU216HW,2013-01-27 00:26:00,
2013-01-26 19:31:00,25.4,15.6,30.08,NW,315,0.0,0.0,66,0.00,,,0.04,WUHU216HW,2013-01-27 00:31:00,
2013-01-26 19:36:00,25.2,15.7,30.08,NW,315,0.0,0.0,67,0.00,,,0.04,WUHU216HW,2013-01-27 00:36:00,
2013-01-26 19:41:00,24.8,15.4,30.08,NW,315,0.0,0.0,67,0.00,,,0.04,WUHU216HW,2013-01-27 00:41:00,
2013-01-26 19:46:00,24.7,15.2,30.08,NW,315,0.0,0.0,67,0.00,,,0.04,WUHU216HW,2013-01-27 00:46:00,
2013-01-26 19:51:00,24.5,15.4,30.08,NW,315,0.0,0.0,68,0.00,,,0.04,WUHU216HW,2013-01-27 00:51:00,
2013-01-26 19:56:00,24.3,15.2,30.08,NW,315,0.0,0.0,68,0.00,,,0.04,WUHU216HW,2013-01-27 00:56:00,
2013-01-26 20:01:00,24.1,15.0,30.08,NNW,338,0.0,0.0,68,0.00,,,0.04,WUHU216HW,2013-01-27 01:01:00,
2013-01-26 20:06:00,24.1,15.4,30.09,NW,315,0.0,0.0,69,0.00,,,0.04,WUHU216HW,2013-01-27 01:06:00,
2013-01-26 20:11:00,24.1,15.4,30.09,NW,315,0.0,0.0,69,0.00,,,0.04,WUHU216HW,2013-01-27 01:11:00,
2013-01-26 20:16:00,23.9,14.9,30.09,NW,315,0.0,0.0,68,0.00,,,0.04,WUHU216HW,2013-01-27 01:16:00,
2013-01-26 20:21:00,23.8,15.0,30.09,NW,315,0.0,0.0,69,0.00,,,0.04,WUHU216HW,2013-01-27 01:21:00,
2013-01-26 20:26:00,23.8,15.0,30.09,NW,315,0.0,0.0,69,0.00,,,0.04,WUHU216HW,2013-01-27 01:26:00,
2013-01-26 20:31:00,23.6,14.9,30.10,NW,315,0.0,0.0,69,0.00,,,0.04,WUHU216HW,2013-01-27 01:31:00,
2013-01-26 20:36:00,23.4,14.8,30.10,WNW,293,0.0,0.0,69,0.00,,,0.04,WUHU216HW,2013-01-27 01:36:00,
2013-01-26 20:41:00,23.4,14.8,30.10,WNW,293,0.0,0.0,69,0.00,,,0.04,WUHU216HW,2013-01-27 01:41:00,
2013-01-26 20:46:00,23.0,14.8,30.10,WNW,293,0.0,0.0,70,0.00,,,0.04,WUHU216HW,2013-01-27 01:46:00,
2013-01-26 20:51:00,22.9,14.6,30.11,WNW,293,0.0,0.0,70,0.00,,,0.04,WUHU216HW,2013-01-27 01:51:00,
2013-01-26 20:56:00,22.7,14.4,30.11,WNW,293,0.0,0.0,70,0.00,,,0.04,WUHU216HW,2013-01-27 01:56:00,
2013-01-26 21:01:00,22.7,14.7,30.11,WNW,293,0.0,0.0,71,0.00,,,0.04,WUHU216HW,2013-01-27 02:01:00,
2013-01-26 21:06:00,22.5,14.5,30.11,WNW,293,0.0,0.0,71,0.00,,,0.04,WUHU216HW,2013-01-27 02:06:00,
2013-01-26 21:11:00,22.3,14.7,30.12,WNW,293,0.0,0.0,72,0.00,,,0.04,WUHU216HW,2013-01-27 02:11:00,
2013-01-26 21:16:00,22.1,14.5,30.12,WNW,293,0.0,0.0,72,0.00,,,0.04,WUHU216HW,2013-01-27 02:16:00,
2013-01-26 21:21:00,22.0,14.3,30.12,WNW,293,0.0,0.0,72,0.00,,,0.04,WUHU216HW,2013-01-27 02:21:00,
2013-01-26 21:26:00,22.0,14.3,30.12,WNW,293,0.0,0.0,72,0.00,,,0.04,WUHU216HW,2013-01-27 02:26:00,
2013-01-26 21:31:00,21.8,14.4,30.13,WNW,293,0.0,0.0,73,0.00,,,0.04,WUHU216HW,2013-01-27 02:31:00,
2013-01-26 21:36:00,21.6,14.2,30.13,WNW,293,0.0,0.0,73,0.00,,,0.04,WUHU216HW,2013-01-27 02:36:00,
2013-01-26 21:41:00,21.6,14.2,30.13,WNW,293,0.0,0.0,73,0.00,,,0.04,WUHU216HW,2013-01-27 02:41:00,
2013-01-26 21:46:00,21.4,14.4,30.13,WNW,293,0.0,0.0,74,0.00,,,0.04,WUHU216HW,2013-01-27 02:46:00,
2013-01-26 21:51:00,21.4,14.4,30.14,WNW,293,0.0,0.0,74,0.00,,,0.04,WUHU216HW,2013-01-27 02:51:00,
2013-01-26 21:56:00,21.4,14.4,30.14,WNW,293,0.0,0.0,74,0.00,,,0.04,WUHU216HW,2013-01-27 02:56:00,
2013-01-26 22:01:00,21.2,14.2,30.14,WNW,293,0.0,0.0,74,0.00,,,0.04,WUHU216HW,2013-01-27 03:01:00,
2013-01-26 22:06:00,21.2,14.5,30.14,WNW,293,0.0,0.0,75,0.00,,,0.04,WUHU216HW,2013-01-27 03:06:00,
2013-01-26 22:11:00,21.2,14.5,30.14,WNW,293,0.0,0.0,75,0.00,,,0.04,WUHU216HW,2013-01-27 03:11:00,
2013-01-26 22:16:00,21.1,14.3,30.15,WNW,293,0.0,0.0,75,0.00,,,0.04,WUHU216HW,2013-01-27 03:16:00,
2013-01-26 22:21:00,21.1,14.1,30.15,WNW,293,0.0,0.0,74,0.00,,,0.04,WUHU216HW,2013-01-27 03:21:00,
2013-01-26 22:26:00,20.9,13.9,30.15,WNW,293,0.0,0.0,74,0.00,,,0.04,WUHU216HW,2013-01-27 03:26:00,
2013-01-26 22:31:00,20.9,13.9,30.15,WNW,293,0.0,0.0,74,0.00,,,0.04,WUHU216HW,2013-01-27 03:31:00,
2013-01-26 22:36:00,20.7,13.7,30.16,WNW,293,0.0,0.0,74,0.00,,,0.04,WUHU216HW,2013-01-27 03:36:00,
2013-01-26 22:41:00,20.7,13.7,30.16,WNW,293,0.0,0.0,74,0.00,,,0.04,WUHU216HW,2013-01-27 03:41:00,
2013-01-26 22:46:00,20.5,13.8,30.16,WNW,293,0.0,0.0,75,0.00,,,0.04,WUHU216HW,2013-01-27 03:46:00,
2013-01-26 22:51:00,20.5,13.8,30.16,WNW,293,0.0,0.0,75,0.00,,,0.04,WUHU216HW,2013-01-27 03:51:00,
2013-01-26 22:57:00,20.5,13.8,30.16,West,270,0.0,0.0,75,0.00,,,0.04,WUHU216HW,2013-01-27 03:57:00,
2013-01-26 23:02:00,20.3,13.9,30.16,West,270,0.0,0.0,76,0.00,,,0.04,WUHU216HW,2013-01-27 04:02:00,
2013-01-26 23:07:00,20.3,13.9,30.16,West,270,0.0,0.0,76,0.00,,,0.04,WUHU216HW,2013-01-27 04:07:00,
2013-01-26 23:12:00,20.2,13.7,30.17,West,270,0.0,0.0,76,0.00,,,0.04,WUHU216HW,2013-01-27 04:12:00,
2013-01-26 23:17:00,20.2,13.7,30.17,SW,225,0.0,0.0,76,0.00,,,0.04,WUHU216HW,2013-01-27 04:17:00,
2013-01-26 23:22:00,20.0,13.5,30.17,SW,225,0.0,0.0,76,0.00,,,0.04,WUHU216HW,2013-01-27 04:22:00,
2013-01-26 23:27:00,20.0,13.5,30.17,SW,225,0.0,0.0,76,0.00,,,0.04,WUHU216HW,2013-01-27 04:27:00,
2013-01-26 23:32:00,19.8,13.3,30.17,WSW,248,0.0,0.0,76,0.00,,,0.04,WUHU216HW,2013-01-27 04:32:00,
2013-01-26 23:37:00,19.8,13.3,30.17,WNW,293,0.0,0.0,76,0.00,,,0.04,WUHU216HW,2013-01-27 04:37:00,
2013-01-26 23:42:00,19.8,13.7,30.18,NE,45,0.4,0.4,77,0.00,,,0.04,WUHU216HW,2013-01-27 04:42:00,
2013-01-26 23:47:00,19.6,13.5,30.18,ESE,113,0.0,0.4,77,0.00,,,0.04,WUHU216HW,2013-01-27 04:47:00,
2013-01-26 23:52:00,19.4,13.3,30.17,South,180,0.0,0.4,77,0.00,,,0.04,WUHU216HW,2013-01-27 04:52:00,
2013-01-26 23:57:00,19.3,13.2,30.17,South,180,0.0,0.2,77,0.00,,,0.04,WUHU216HW,2013-01-27 04:57:00,